THORAD AGENA D DEB, 4143

Orbit data source: Space-Track

THORAD AGENA D DEB, 4143 is space debris in LEO originally from a launch on Tue, 30 Sep 1969 UTC launched from the Air Force Western Test Range (AFWTR). Debris objects in space refer to the collection of defunct objects orbiting the Earth. Examples of debris include non-operational satellites, rocket bodies, and fragments generated from explosions, collisions, or faulty payload assembly.

Loading next visibility...
Identifier
4143, 1969-082M
Orbit
LEO
Country
Flag of USUS
Related business
Manufacturer
Unknown
Mission
Spacecraft
Bus & Motor
Unknown
Mass
Unknown
Launch date (UTC)
1969-09-30 (57 years ago)
Launch vehicle
Unknown
Launch site
Air Force Western Test Range (AFWTR)
Object type
Payload
Rocket body
Debris
Shape & HBR
Unknown shape, 0.2 m
Radar Cross Section
Medium (>0.1 m² and <1 m²)

Expand to show TLE details & history
Last TLE update: 3 days ago

TLE from 3 days ago
0 THORAD AGENA D DEB
1  4143U 69082M   26171.27369131  .00000247  00000-0  13966-3 0  9997
2  4143  70.1112 246.7842 0018490  77.0049 283.3133 14.20744580918611
Epoch: 2026-06-20T06:34Z
TLE epoch observation values (Epoch: 2026-06-20T06:34:06.929Z)
Latitude
-0.00006°
Longitude
-120.23537°
Altitude
822.14 km
Speed
7.444 km/s
True Right ascension
16h 27m 08s
True Declination
0° 00' 00"
Sunlit
Object was in full shadow at epoch
Visualization orbit readout
Latitude
Unknown
Longitude
Unknown
Altitude
Unknown
Speed
Unknown
Apparent Right ascension
Unknown
Apparent Declination
Unknown
Sunlit
N/A
Visualization observer readout
Local Sidereal Time
12:50:03
Azimuth
Unknown
Elevation
Unknown
Doppler factor
Unknown
Orbital elements
Apogee altitude
834.155 km
Perigee altitude
807.533 km
Semi-major axis
7,198.981 km
Eccentricity
0.00185
Inclination
70.1112°
RAAN
246.7842°
Arg. of periapsis
77.0049°
True anomaly
283.10701°
Mean anomaly
283.3133°
Eccentric anomaly
283.21016°
Mean motion
3.55334 °/min
Orbital period
101.31 mins
BSTAR
0.00013966

Documentation

Showing up to 5 results
|